VENTA 1 (42791 NORAD) Tracking and Keplerian Element Data

This shows tracking and keplerian element data for the satellite.

Feedback or suggestion? Click here.




ElementValue
Catalog42791
NameVENTA 1
Epoch Orbit34395
Epoch Day238.6303259
Epoch Year2023
RAAN276.7129
Inclination97.1414
Eccentricity0.0006215
Argument of Perigee169.286
Mean Anonmoly190.8528
Mean Motion15.54424992
Decay Rate0.00060249
L11 42791U 17036AC 23238.63032590 .00060249 00000-0 91306-3 0 9999
L22 42791 97.1414 276.7129 0006215 169.2860 190.8528 15.54424992343953



Live tracking and technical data element details for VENTA 1 (NORAD 42791). VENTA 1 can be tracked NOW for your location showing map with azimuth and elevation plus other details from your city location.







IsCatalogInMostPopularTable: catalog: 42791, numindb: 541
Update: records affected: 1



GetName: 42791 VENTA 1

Hit Count: updated at: Thu, 23 Jan 2025 17:16:18 GMT